When you browse on this site, cookies collect data to enhance your experience and personalize the content and advertising you see.
Visit our Privacy Policy to learn more. By continuing to use the site, you agree to this use of cookies and data.

Meteo pe oră la Pernik

Astăzi, 16 Iulie, Joi

Timp Temperatura Precipitaţii Vânt Presiune Umiditate
00:00 +15°C° 0.1 mm 1 m/s 690 mmHg 83%
01:00 +14°C° 0.1 mm 0 m/s 690 mmHg 83%
02:00 +14°C° 0 mm 0 m/s 690 mmHg 83%
03:00 +14°C° 0.2 mm 0 m/s 689 mmHg 84%
04:00 +13°C° 0.2 mm 0 m/s 689 mmHg 85%
05:00 +13°C° 0.2 mm 0 m/s 689 mmHg 86%
06:00 +14°C° 0.3 mm 0 m/s 689 mmHg 83%
07:00 +16°C° 0.3 mm 0 m/s 690 mmHg 80%
08:00 +19°C° 0.3 mm 1 m/s 690 mmHg 78%
09:00 +20°C° 0.6 mm 1 m/s 690 mmHg 72%
10:00 +22°C° 0.6 mm 1 m/s 691 mmHg 67%
11:00 +23°C° 0.6 mm 1 m/s 691 mmHg 61%
12:00 +24°C° 0.5 mm 2 m/s 690 mmHg 59%
13:00 +24°C° 0.5 mm 2 m/s 690 mmHg 56%
14:00 +25°C° 0.5 mm 3 m/s 690 mmHg 54%
15:00 +25°C° 0.5 mm 3 m/s 690 mmHg 56%
16:00 +24°C° 0.5 mm 3 m/s 689 mmHg 59%
17:00 +24°C° 0.5 mm 3 m/s 689 mmHg 61%
18:00 +21°C° 0.3 mm 2 m/s 689 mmHg 68%
19:00 +19°C° 0.3 mm 2 m/s 689 mmHg 75%
20:00 +18°C° 0.3 mm 1 m/s 689 mmHg 81%
21:00 +16°C° 0 mm 1 m/s 689 mmHg 83%
22:00 +16°C° 0 mm 1 m/s 689 mmHg 84%
23:00 +15°C° 0 mm 1 m/s 689 mmHg 85%

Mâine, 17 Iulie, Vineri

Timp Temperatura Precipitaţii Vânt Presiune Umiditate
00:00 +15°C° 0 mm 1 m/s 689 mmHg 86%
01:00 +14°C° 0 mm 1 m/s 689 mmHg 86%
02:00 +14°C° 0 mm 1 m/s 689 mmHg 86%
03:00 +12°C° 0 mm 0 m/s 689 mmHg 86%
04:00 +12°C° 0 mm 0 m/s 688 mmHg 87%
05:00 +12°C° 0 mm 0 m/s 688 mmHg 87%
06:00 +14°C° 0 mm 0 m/s 689 mmHg 82%
07:00 +16°C° 0 mm 1 m/s 689 mmHg 77%
08:00 +19°C° 0 mm 1 m/s 690 mmHg 72%
09:00 +21°C° 0 mm 1 m/s 690 mmHg 65%
10:00 +23°C° 0 mm 1 m/s 690 mmHg 58%
11:00 +24°C° 0 mm 1 m/s 690 mmHg 52%
12:00 +25°C° 0 mm 1 m/s 690 mmHg 49%
13:00 +26°C° 0 mm 1 m/s 690 mmHg 47%
14:00 +27°C° 0 mm 1 m/s 689 mmHg 44%
15:00 +26°C° 0.1 mm 1 m/s 689 mmHg 45%
16:00 +24°C° 0.1 mm 0 m/s 689 mmHg 46%
17:00 +24°C° 0.1 mm 0 m/s 688 mmHg 46%
18:00 +24°C° 0.1 mm 1 m/s 688 mmHg 54%
19:00 +22°C° 0.1 mm 1 m/s 688 mmHg 62%
20:00 +20°C° 0.1 mm 1 m/s 687 mmHg 70%
21:00 +19°C° 0.1 mm 1 m/s 688 mmHg 73%
22:00 +19°C° 0.1 mm 1 m/s 688 mmHg 76%
23:00 +18°C° 0.1 mm 1 m/s 688 mmHg 79%

Poimâine, 18 Iulie, Sâmbătă

Timp Temperatura Precipitaţii Vânt Presiune Umiditate
00:00 +18°C° 0.3 mm 1 m/s 688 mmHg 82%
01:00 +16°C° 0.3 mm 1 m/s 688 mmHg 84%
02:00 +16°C° 0.3 mm 1 m/s 688 mmHg 86%
03:00 +16°C° 0.4 mm 1 m/s 688 mmHg 87%
04:00 +15°C° 0.4 mm 1 m/s 688 mmHg 88%
05:00 +15°C° 0.4 mm 1 m/s 688 mmHg 89%
06:00 +16°C° 0.3 mm 1 m/s 688 mmHg 89%
07:00 +16°C° 0.3 mm 1 m/s 688 mmHg 89%
08:00 +16°C° 0.3 mm 1 m/s 689 mmHg 88%
09:00 +16°C° 0.5 mm 1 m/s 689 mmHg 89%
10:00 +18°C° 0.5 mm 1 m/s 689 mmHg 89%
11:00 +18°C° 0.5 mm 1 m/s 689 mmHg 89%
12:00 +18°C° 0.5 mm 1 m/s 688 mmHg 88%
13:00 +18°C° 0.5 mm 1 m/s 688 mmHg 87%
14:00 +17°C° 0.5 mm 2 m/s 688 mmHg 87%
15:00 +18°C° 1.2 mm 1 m/s 688 mmHg 88%
16:00 +18°C° 1.2 mm 1 m/s 688 mmHg 90%
17:00 +18°C° 1.2 mm 1 m/s 688 mmHg 91%
18:00 +16°C° 1.7 mm 1 m/s 688 mmHg 92%
19:00 +16°C° 1.7 mm 1 m/s 688 mmHg 94%
20:00 +15°C° 1.7 mm 1 m/s 688 mmHg 95%
21:00 +15°C° 0.3 mm 1 m/s 688 mmHg 95%
22:00 +15°C° 0.3 mm 1 m/s 689 mmHg 95%
23:00 +13°C° 0.3 mm 0 m/s 689 mmHg 95%

19 Iulie, Duminică

Timp Temperatura Precipitaţii Vânt Presiune Umiditate
00:00 +13°C° 0.5 mm 0 m/s 689 mmHg 95%
01:00 +13°C° 0.5 mm 0 m/s 689 mmHg 95%
02:00 +13°C° 0.5 mm 1 m/s 689 mmHg 96%
03:00 +12°C° 0.1 mm 0 m/s 689 mmHg 95%
04:00 +12°C° 0.1 mm 0 m/s 689 mmHg 95%
05:00 +12°C° 0.1 mm 0 m/s 689 mmHg 95%
06:00 +14°C° 0 mm 0 m/s 689 mmHg 92%
07:00 +16°C° 0 mm 1 m/s 689 mmHg 89%
08:00 +18°C° 0 mm 1 m/s 690 mmHg 86%
09:00 +19°C° 0 mm 1 m/s 690 mmHg 79%
10:00 +21°C° 0 mm 1 m/s 690 mmHg 71%
11:00 +22°C° 0 mm 1 m/s 691 mmHg 64%
12:00 +23°C° 0 mm 1 m/s 690 mmHg 60%
13:00 +24°C° 0 mm 1 m/s 690 mmHg 56%
14:00 +25°C° 0 mm 1 m/s 690 mmHg 52%
15:00 +25°C° 0.1 mm 1 m/s 690 mmHg 54%
16:00 +25°C° 0.1 mm 1 m/s 690 mmHg 55%
17:00 +24°C° 0.1 mm 1 m/s 689 mmHg 57%
18:00 +22°C° 0.2 mm 1 m/s 689 mmHg 65%
19:00 +20°C° 0.2 mm 1 m/s 689 mmHg 73%
20:00 +17°C° 0.2 mm 2 m/s 689 mmHg 80%
21:00 +18°C° 0 mm 1 m/s 689 mmHg 82%
22:00 +16°C° 0 mm 1 m/s 689 mmHg 83%
23:00 +15°C° 0 mm 1 m/s 689 mmHg 85%

20 Iulie, Luni

Timp Temperatura Precipitaţii Vânt Presiune Umiditate
00:00 +15°C° 0 mm 1 m/s 689 mmHg 85%
01:00 +14°C° 0 mm 0 m/s 689 mmHg 85%
02:00 +13°C° 0 mm 0 m/s 689 mmHg 86%
03:00 +13°C° 0 mm 0 m/s 689 mmHg 86%
04:00 +13°C° 0 mm 0 m/s 689 mmHg 86%
05:00 +13°C° 0 mm 1 m/s 689 mmHg 87%
06:00 +15°C° 0 mm 1 m/s 689 mmHg 83%
07:00 +18°C° 0 mm 1 m/s 690 mmHg 79%
08:00 +19°C° 0 mm 1 m/s 690 mmHg 75%
09:00 +21°C° 0.1 mm 1 m/s 690 mmHg 69%
10:00 +21°C° 0.1 mm 2 m/s 691 mmHg 63%
11:00 +24°C° 0.1 mm 2 m/s 691 mmHg 56%
12:00 +25°C° 0.1 mm 2 m/s 691 mmHg 53%
13:00 +25°C° 0.1 mm 2 m/s 691 mmHg 50%
14:00 +26°C° 0.1 mm 3 m/s 691 mmHg 47%
15:00 +25°C° 0 mm 3 m/s 691 mmHg 49%
16:00 +25°C° 0 mm 3 m/s 690 mmHg 51%
17:00 +25°C° 0 mm 4 m/s 690 mmHg 52%
18:00 +22°C° 0 mm 3 m/s 690 mmHg 61%
19:00 +20°C° 0 mm 2 m/s 690 mmHg 69%
20:00 +19°C° 0 mm 1 m/s 690 mmHg 77%
21:00 +18°C° 0 mm 1 m/s 690 mmHg 79%
22:00 +16°C° 0 mm 1 m/s 690 mmHg 80%
23:00 +16°C° 0 mm 1 m/s 691 mmHg 82%

21 Iulie, Marţi

Timp Temperatura Precipitaţii Vânt Presiune Umiditate
00:00 +15°C° 0 mm 1 m/s 691 mmHg 83%
01:00 +15°C° 0 mm 1 m/s 691 mmHg 84%
02:00 +14°C° 0 mm 1 m/s 691 mmHg 85%
03:00 +14°C° 0 mm 1 m/s 691 mmHg 86%
04:00 +14°C° 0 mm 1 m/s 691 mmHg 87%
05:00 +14°C° 0 mm 1 m/s 691 mmHg 88%
06:00 +15°C° 0 mm 1 m/s 691 mmHg 83%
07:00 +18°C° 0 mm 1 m/s 691 mmHg 78%
08:00 +20°C° 0 mm 1 m/s 692 mmHg 72%
09:00 +21°C° 0 mm 2 m/s 692 mmHg 67%
10:00 +23°C° 0 mm 2 m/s 693 mmHg 61%
11:00 +25°C° 0 mm 3 m/s 693 mmHg 55%
12:00 +26°C° 0 mm 3 m/s 693 mmHg 53%
13:00 +26°C° 0 mm 3 m/s 693 mmHg 52%
14:00 +27°C° 0 mm 3 m/s 692 mmHg 51%
15:00 +27°C° 0 mm 3 m/s 692 mmHg 54%
16:00 +27°C° 0 mm 3 m/s 692 mmHg 57%
17:00 +26°C° 0 mm 3 m/s 692 mmHg 60%
18:00 +24°C° 0 mm 3 m/s 692 mmHg 67%
19:00 +23°C° 0 mm 2 m/s 691 mmHg 75%
20:00 +21°C° 0 mm 1 m/s 691 mmHg 82%
21:00 +20°C° 0 mm 1 m/s 692 mmHg 83%
22:00 +19°C° 0 mm 1 m/s 692 mmHg 85%
23:00 +19°C° 0 mm 1 m/s 692 mmHg 86%
Arată mai mult